Location: Dompnac
(44.5644°N, 4.1026°E)
Time: 10:43:13
(UTC+00:00)

Cosmos 2026 Rocket - Pass Details

Date: 19 January 2021
Orbit: 940 x 1000 km, 82.9° (Epoch: 26 February)

Event Time Altitude Azimuth Distance (km) Brightness Sun altitude
Rises 19:07:01 0° 187° (S) 3,595 7.1 -26.7°
Reaches altitude 10° 19:09:28 10° 187° (S) 2,659 6.4 -27.2°
Maximum altitude 19:15:33 87° 275° (W) 962 3.8 -28.3°
Enters shadow 19:18:54 29° 6° (N) 1,673 5.1 -28.9°
Exits shadow 19:23:49 - 8° (N) 3,487 6.8 -29.7°
Sets 19:24:19 0° 8° (N) 3,673 6.9 -29.8°
